Coleman, TX

1:06 PM CDT on May 27, 2017 (GMT -0500)
Coleman Municipal

Weather History for KCOM - March, 2014

Change the Weather History Date:

Thursday, March 27, 2014

  Actual Average (KABI) Record (KABI)
Temperature  
Mean Temperature 73 °F -  
Max Temperature 87 °F 68 °F 92 °F (1971)
Min Temperature 57 °F 45 °F 19 °F (1931)
Cooling Degree Days 8    
Growing Degree Days 23 (Base 50)    
Moisture  
Dew Point 42 °F    
Average Humidity 45    
Maximum Humidity 80    
Minimum Humidity 8    
Precipitation  
Precipitation 0.00 in - - ()
Sea Level Pressure  
Sea Level Pressure 29.77 in    
Wind  
Wind Speed 14 mph (SW)    
Max Wind Speed 24 mph    
Max Gust Speed 32 mph    
Visibility 10 miles    
Events      
Averages and records for this station are not official NWS values.
T = Trace of Precipitation, MM = Missing Value Source: NWS Daily Summary

Daily Weather History Graph

Daily Weather History Graph

Search for Another Location

Airport or City:

Trip Planner

Search our weather history database for the weather conditions in past years. The results will help you decide how hot, cold, wet, or windy it might be!

Date:

Astronomy

Mar. 27, 2014 Rise Set
Actual Time 7:32 AM CDT 7:53 PM CDT
Civil Twilight 7:07 AM CDT 8:18 PM CDT
Nautical Twilight 6:39 AM CDT 8:47 PM CDT
Astronomical Twilight 6:10 AM CDT 9:16 PM CDT
Moon 5:13 AM CDT 4:53 PM CDT
Length of Visible Light 13h 10m
Length of Day
12h 21m
Waning Crescent, 13% of the Moon is Illuminated
Mar 27
Waning Crescent
Mar 30
New
Apr 7
First Quarter
Apr 15
Full
Apr 22
Last Quarter

Hourly Weather History & Observations

Time (CDT) Temp. Dew Point Humidity Pressure Visibility Wind Dir Wind Speed Gust Speed Precip Events Conditions
12:15 AM 60.3 °F 53.1 °F 77% 29.85 in 10.0 mi South 13.8 mph 24.2 mph N/A   Overcast
12:35 AM 60.4 °F 53.2 °F 77% 29.85 in 10.0 mi South 12.7 mph 21.9 mph N/A   Overcast
12:55 AM 60.8 °F 53.2 °F 76% 29.85 in 10.0 mi South 10.4 mph 17.3 mph N/A   Overcast
1:15 AM 60.8 °F 53.6 °F 77% 29.84 in 10.0 mi South 15.0 mph 20.7 mph N/A   Overcast
1:35 AM 60.8 °F 53.8 °F 78% 29.83 in 10.0 mi South 15.0 mph 20.7 mph N/A   Overcast
1:55 AM 61.0 °F 54.0 °F 78% 29.82 in 10.0 mi South 16.1 mph 19.6 mph N/A   Overcast
2:15 AM 61.0 °F 54.1 °F 78% 29.81 in 10.0 mi South 16.1 mph 23.0 mph N/A   Overcast
2:35 AM 61.2 °F 54.3 °F 78% 29.78 in 10.0 mi South 17.3 mph 24.2 mph N/A   Overcast
2:55 AM 61.7 °F 54.5 °F 77% 29.77 in 10.0 mi South 23.0 mph 28.8 mph N/A   Overcast
3:15 AM 62.1 °F 54.5 °F 76% 29.76 in 10.0 mi South 18.4 mph 27.6 mph N/A   Overcast
3:35 AM 61.9 °F 54.7 °F 77% 29.75 in 10.0 mi South 23.0 mph 28.8 mph N/A   Overcast
3:55 AM 61.9 °F 55.0 °F 78% 29.74 in 10.0 mi South 19.6 mph 29.9 mph N/A   Overcast
4:15 AM 62.1 °F 55.4 °F 79% 29.75 in 10.0 mi South 18.4 mph 29.9 mph N/A   Overcast
4:35 AM 62.2 °F 55.6 °F 79% 29.75 in 10.0 mi South 18.4 mph 25.3 mph N/A   Overcast
4:55 AM 62.6 °F 55.8 °F 78% 29.75 in 10.0 mi South 19.6 mph 25.3 mph N/A   Overcast
5:15 AM 62.6 °F 55.9 °F 79% 29.75 in 10.0 mi SSW 12.7 mph 23.0 mph N/A   Overcast
5:35 AM 62.8 °F 55.9 °F 78% 29.75 in 10.0 mi South 11.5 mph 19.6 mph N/A   Overcast
5:55 AM 63.0 °F 56.1 °F 78% 29.76 in 10.0 mi SSW 13.8 mph 17.3 mph N/A   Overcast
6:15 AM 63.3 °F 56.3 °F 78% 29.76 in 10.0 mi SSW 10.4 mph 25.3 mph N/A   Overcast
6:35 AM 63.5 °F 56.5 °F 78% 29.76 in 10.0 mi SSW 20.7 mph 25.3 mph N/A   Overcast
6:55 AM 63.7 °F 56.7 °F 78% 29.77 in 10.0 mi South 15.0 mph 23.0 mph N/A   Overcast
7:15 AM 63.5 °F 56.8 °F 79% 29.77 in 10.0 mi SSW 11.5 mph 19.6 mph N/A   Overcast
7:35 AM 63.5 °F 56.8 °F 79% 29.78 in 10.0 mi SSW 13.8 mph 19.6 mph N/A   Overcast
7:55 AM 63.5 °F 56.8 °F 79% 29.78 in 10.0 mi South 11.5 mph - N/A   Overcast
8:15 AM 63.5 °F 57.2 °F 80% 29.79 in 10.0 mi SSW 11.5 mph - N/A   Overcast
8:35 AM 63.9 °F 57.4 °F 79% 29.79 in 10.0 mi South 12.7 mph - N/A   Overcast
8:55 AM 64.6 °F 57.6 °F 78% 29.80 in 10.0 mi SSW 8.1 mph - N/A   Overcast
9:15 AM 65.3 °F 57.9 °F 77% 29.81 in 10.0 mi SSW 6.9 mph - N/A   Overcast
9:35 AM 66.7 °F 57.6 °F 72% 29.81 in 10.0 mi SSW 10.4 mph 16.1 mph N/A   Overcast
9:55 AM 68.7 °F 57.4 °F 67% 29.81 in 10.0 mi SW 15.0 mph 21.9 mph N/A   Mostly Cloudy
10:15 AM 70.3 °F 56.8 °F 62% 29.81 in 10.0 mi SSW 17.3 mph 27.6 mph N/A   Scattered Clouds
10:35 AM 70.9 °F 56.1 °F 59% 29.81 in 10.0 mi SSW 18.4 mph - N/A   Scattered Clouds
10:55 AM 72.5 °F 56.1 °F 56% 29.81 in 10.0 mi SSW 16.1 mph 23.0 mph N/A   Clear
11:15 AM 73.8 °F 55.0 °F 52% 29.81 in 10.0 mi SSW 18.4 mph - N/A   Clear
11:35 AM 75.0 °F 54.9 °F 49% 29.81 in 10.0 mi SW 12.7 mph 25.3 mph N/A   Clear
11:55 AM 77.0 °F 50.4 °F 39% 29.82 in 10.0 mi West 15.0 mph 24.2 mph N/A   Clear
12:15 PM 78.1 °F 48.7 °F 36% 29.81 in 10.0 mi WSW 15.0 mph 24.2 mph N/A   Clear
12:35 PM 78.8 °F 46.8 °F 32% 29.81 in 10.0 mi WSW 15.0 mph 21.9 mph N/A   Clear
12:55 PM 79.3 °F 45.9 °F 31% 29.81 in 10.0 mi West 19.6 mph 26.5 mph N/A   Clear
1:15 PM 79.7 °F 44.6 °F 29% 29.80 in 10.0 mi WSW 24.2 mph 27.6 mph N/A   Clear
1:35 PM 80.6 °F 44.1 °F 27% 29.79 in 10.0 mi West 11.5 mph 24.2 mph N/A   Clear
1:55 PM 81.7 °F 42.4 °F 25% 29.78 in 10.0 mi West 17.3 mph 21.9 mph N/A   Clear
2:15 PM 83.1 °F 40.6 °F 22% 29.77 in 10.0 mi WNW 10.4 mph 26.5 mph N/A   Scattered Clouds
2:35 PM 83.3 °F 38.8 °F 21% 29.76 in 10.0 mi WSW 10.4 mph 23.0 mph N/A   Clear
2:55 PM 84.6 °F 37.2 °F 19% 29.75 in 10.0 mi WSW 12.7 mph 23.0 mph N/A   Clear
3:15 PM 85.5 °F 32.9 °F 15% 29.74 in 10.0 mi West 15.0 mph 25.3 mph N/A   Clear
3:35 PM 85.8 °F 30.9 °F 14% 29.73 in 10.0 mi WNW 11.5 mph 23.0 mph N/A   Clear
3:55 PM 87.6 °F 26.6 °F 11% 29.73 in 10.0 mi WSW 17.3 mph 23.0 mph N/A   Clear
4:15 PM 86.9 °F 27.1 °F 11% 29.72 in 10.0 mi WSW 15.0 mph 18.4 mph N/A   Clear
4:35 PM 86.9 °F 24.8 °F 10% 29.72 in 10.0 mi WSW 15.0 mph 25.3 mph N/A   Clear
4:55 PM 86.9 °F 22.6 °F 10% 29.71 in 10.0 mi WSW 20.7 mph 24.2 mph N/A   Clear
5:15 PM 86.5 °F 19.6 °F 9% 29.71 in 10.0 mi West 13.8 mph 26.5 mph N/A   Clear
5:35 PM 86.5 °F 20.3 °F 9% 29.71 in 10.0 mi West 16.1 mph 25.3 mph N/A   Clear
5:55 PM 86.2 °F 19.2 °F 8% 29.71 in 10.0 mi West 16.1 mph 32.2 mph N/A   Clear
6:15 PM 85.6 °F 19.4 °F 9% 29.71 in 10.0 mi West 18.4 mph 31.1 mph N/A   Clear
6:35 PM 84.9 °F 20.1 °F 9% 29.71 in 10.0 mi West 12.7 mph 23.0 mph N/A   Clear
6:55 PM 84.0 °F 19.9 °F 9% 29.71 in 10.0 mi West 15.0 mph 18.4 mph N/A   Clear
7:15 PM 82.8 °F 19.9 °F 10% 29.72 in 10.0 mi West 8.1 mph - N/A   Clear
7:35 PM 81.0 °F 18.7 °F 10% 29.72 in 10.0 mi West 8.1 mph - N/A   Clear
7:55 PM 77.5 °F 18.5 °F 11% 29.73 in 10.0 mi West 3.5 mph - N/A   Clear
8:15 PM 77.0 °F 18.0 °F 11% 29.73 in 10.0 mi West 3.5 mph - N/A   Clear
8:35 PM 75.4 °F 17.6 °F 11% 29.74 in 10.0 mi Calm Calm - N/A   Clear
8:55 PM 70.7 °F 18.7 °F 14% 29.74 in 10.0 mi Calm Calm - N/A   Clear
9:15 PM 68.9 °F 19.8 °F 15% 29.75 in 10.0 mi SSW 4.6 mph - N/A   Clear
9:35 PM 66.6 °F 22.6 °F 19% 29.76 in 10.0 mi SSW 3.5 mph - N/A   Clear
9:55 PM 69.3 °F 20.3 °F 16% 29.76 in 10.0 mi SSW 3.5 mph - N/A   Clear
10:15 PM 65.7 °F 23.5 °F 20% 29.77 in 10.0 mi SW 4.6 mph - N/A   Clear
10:35 PM 64.8 °F 23.7 °F 21% 29.78 in 10.0 mi WSW 3.5 mph - N/A   Clear
10:55 PM 61.5 °F 24.8 °F 25% 29.78 in 10.0 mi SW 3.5 mph - N/A   Clear
11:15 PM 59.4 °F 25.5 °F 27% 29.78 in 10.0 mi Calm Calm - N/A   Clear
11:35 PM 62.2 °F 25.0 °F 24% 29.78 in 10.0 mi WSW 3.5 mph - N/A   Clear
11:55 PM 57.2 °F 26.4 °F 31% 29.79 in 10.0 mi SW 3.5 mph - N/A   Clear